Weather History for Francistown, Botswana

Change the Weather History Date:

Thursday, February 21, 2013

  Actual Average Record
Temperature  
Mean Temperature 80 °F -  
Max Temperature 89 °F 83 °F - ()
Min Temperature 70 °F 64 °F - ()
Cooling Degree Days 14    
Growing Degree Days 30 (Base 50)    
Moisture  
Dew Point 65 °F    
Average Humidity 64    
Maximum Humidity 83    
Minimum Humidity 49    
Precipitation  
Precipitation 0.00 in - - ()
Sea Level Pressure  
Sea Level Pressure 30.00 in    
Wind  
Wind Speed 8 mph ()    
Max Wind Speed 16 mph    
Max Gust Speed -    
Visibility 6.2 miles    
Events      
T = Trace of Precipitation, MM = Missing Value Source: Averaged Metar Reports

Daily Weather History Graph

Daily Weather History Graph

Search for Another Location

Airport:

Trip Planner

Search our weather history database for the weather conditions in past years. The results will help you decide how hot, cold, wet, or windy it might be!

Date:

Astronomy

Feb. 21, 2013 Rise Set
Actual Time 6:03 AM CAT 6:43 PM CAT
Civil Twilight 5:40 AM CAT 7:06 PM CAT
Nautical Twilight 5:14 AM CAT 7:32 PM CAT
Astronomical Twilight 4:47 AM CAT 7:59 PM CAT
Moon 3:30 PM CAT (2/21) 2:01 AM CAT (2/21)
Length of Visible Light 13h 25m
Length of Day
12h 39m
Waxing Gibbous, 81% of the Moon is Illuminated
Feb 21
Waxing Gibbous
Feb 25
Full
Mar 4
Last Quarter
Mar 11
New
Mar 19
First Quarter

Hourly Weather History & Observations

Time (CAT) Temp. Heat Index Dew Point Humidity Pressure Visibility Wind Dir Wind Speed Gust Speed Precip Events Conditions
12:00 AM 77.0 °F - 66.2 °F 69% 29.98 in - East 10.4 mph - N/A   Clear
1:00 AM 77.0 °F - 66.2 °F 69% 29.95 in - ENE 9.2 mph - N/A   Clear
2:00 AM 74 °F - 66 °F 68%  in 6 mi NW 3.5 mph - -   Partly Cloudy
2:00 AM 73.4 °F - 66.2 °F 78% 29.95 in - NW 3.5 mph - N/A   Clear
3:00 AM 71.6 °F - 66.2 °F 83% 29.95 in - Variable 2.3 mph - N/A   Clear
4:00 AM 69.8 °F - 64.4 °F 83% 29.95 in - Variable 2.3 mph - N/A   Clear
5:00 AM 71.6 °F - 66.2 °F 83% 29.98 in - ENE 5.8 mph - N/A   Clear
6:00 AM 75.2 °F - 64.4 °F 69% 30.01 in - ENE 8.1 mph - N/A   Clear
7:00 AM 73.4 °F - 62.6 °F 69% 30.04 in - ENE 10.4 mph - N/A   Clear
8:00 AM 76 °F - 64 °F 58%  in 6 mi ENE 13.8 mph - -   Partly Cloudy
8:00 AM 75.2 °F - 64.4 °F 69% 30.04 in 6.2 mi ENE 13.8 mph - N/A   Partly Cloudy
9:00 AM 77.0 °F - 66.2 °F 69% 30.06 in 6.2 mi ENE 9.2 mph - N/A   Scattered Clouds
10:00 AM 82.4 °F 84.6 °F 66.2 °F 58% 30.06 in 6.2 mi ENE 5.8 mph - N/A   Scattered Clouds
11:00 AM 86.0 °F 88.2 °F 66.2 °F 51% 30.04 in 6.2 mi East 11.5 mph - N/A   Mostly Cloudy
12:00 PM 86.0 °F 88.2 °F 66.2 °F 51% 30.04 in 6.2 mi SE 11.5 mph - N/A   Mostly Cloudy
1:00 PM 87.8 °F 90.4 °F 66.2 °F 49% 30.01 in 6.2 mi ESE 16.1 mph - N/A   Partly Cloudy
2:00 PM 87.8 °F 90.4 °F 66.2 °F 49% 29.98 in 6.2 mi East 13.8 mph - N/A   Partly Cloudy
3:00 PM 86.0 °F 88.2 °F 66.2 °F 51% 29.98 in 6.2 mi ENE 12.7 mph - N/A   Partly Cloudy
4:00 PM 82.4 °F 84.6 °F 66.2 °F 58% 29.95 in 6.2 mi NE 6.9 mph - N/A   Partly Cloudy
5:00 PM 84.2 °F 85.6 °F 64.4 °F 51% 29.95 in 6.2 mi East 11.5 mph - N/A   Partly Cloudy
6:00 PM 82.4 °F 83.9 °F 64.4 °F 54% 29.95 in 6.2 mi East 11.5 mph - N/A   Partly Cloudy
7:00 PM 78.8 °F - 64.4 °F 61% 29.98 in 6.2 mi ESE 10.4 mph - N/A   Partly Cloudy
8:00 PM 76 °F - 65 °F 61%  in 6 mi ESE 10.4 mph - -   Mostly Cloudy
8:00 PM 77.0 °F - 64.4 °F 65% 30.04 in 6.2 mi ESE 10.4 mph - N/A   Partly Cloudy
9:00 PM 75.2 °F - 64.4 °F 69% 30.06 in 6.2 mi East 11.5 mph - N/A   Partly Cloudy